Temperature
13 13 13 13 12 12 12 12 12 12 12 11 11 11 11 11 11 11 11 11 11 11 11 11 11 11 11 10 10 10 10 10 10 10 10 10 10 10 10 10 10 10 10
12 12 12 12 12 12 12 12 11 11 11 11 11 11 11 11 11 11 11 11 11 11 10 10 10 10 10 10 10 10 10 10 10 10 10 10 10 10 10 10 10 10 10
12 12 12 12 12 12 11 11 11 11 11 11 11 11 11 11 10 10 10 10 10 10 10 10 10 10 10 10 10 10 10 10 10 9 9 9 10 10 10 10 10 9 9
11 12 12 12 12 11 11 11 11 11 10 10 10 10 10 10 10 10 10 10 10 10 10 10 10 10 9 9 9 9 9 9 9 9 9 9 9 9 9 9 9 9 9
11 11 11 11 11 11 11 11 10 10 10 10 10 10 10 10 9 9 9 9 9 9 9 9 9 9 9 9 9 9 9 9 9 9 9 9 9 9 9 9 9 9 8
11 11 11 11 11 11 10 10 10 10 10 10 9 9 9 9 9 9 9 9 9 9 9 9 9 9 9 9 9 8 8 8 9 8 8 8 8 8 8 8 8 8 8
11 11 11 11 11 10 10 10 10 10 9 9 9 9 9 9 9 9 9 8 8 9 9 9 9 8 8 9 8 8 8 8 8 8 8 8 8 8 8 8 8 8 8
10 10 10 10 10 10 10 10 10 9 9 9 9 9 8 8 8 9 8 8 8 8 8 8 8 8 8 8 8 8 8 8 8 8 8 8 8 8 8 8 8 8 7
10 10 10 10 10 10 10 10 9 9 9 9 9 9 8 8 8 8 8 8 8 8 8 8 8 8 8 8 8 8 8 8 8 8 7 7 7 7 7 7 7 7 7
10 10 10 10 10 10 10 9 9 9 9 9 8 8 9 9 8 8 8 8 8 8 8 8 8 8 8 8 8 7 7 7 7 7 7 7 7 7 7 7 7 7 7
10 10 9 9 9 9 9 9 9 9 9 9 8 8 8 8 8 8 8 8 8 8 8 8 8 8 7 7 7 7 7 7 7 7 7 7 7 7 7 7 7 7 7
9 9 9 9 9 9 9 9 9 9 8 8 8 8 8 8 8 8 8 8 8 8 8 8 8 8 7 7 7 7 7 7 7 7 7 6 6 6 6 6 6 6 6
9 9 9 9 9 9 9 8 8 8 8 8 8 8 8 8 8 8 7 7 7 7 7 7 7 7 7 7 7 7 7 7 6 6 6 6 6 6 6 6 6 6 6
8 9 8 8 8 8 8 8 8 8 8 8 8 7 7 7 7 7 7 7 7 7 7 7 7 7 7 7 7 7 6 6 6 6 6 6 6 6 6 6 6 6 6
8 8 8 8 8 8 8 8 8 8 7 7 7 7 7 7 7 7 7 6 6 6 6 7 7 7 7 7 6 6 6 6 6 6 6 6 6 5 5 5 5 5 5
8 8 8 8 8 7 7 7 7 7 7 7 7 7 7 7 7 7 6 6 6 6 6 6 6 6 6 6 6 6 6 6 6 5 5 5 5 5 5 5 5 5 5
7 7 7 7 7 7 7 7 7 7 7 7 7 7 7 6 6 6 6 6 6 6 5 6 6 6 6 6 6 5 5 5 5 5 5 5 5 4 4 4 4 4 4
7 7 7 7 7 7 7 7 7 7 7 6 6 6 6 6 6 6 6 6 6 6 5 5 5 5 5 5 5 5 5 5 5 5 4 4 4 4 4 4 4 4 4
6 6 6 6 6 6 6 6 6 6 6 6 6 6 6 6 6 6 6 5 5 5 5 5 5 5 5 4 4 4 4 4 4 4 4 4 4 4 4 3 3 3 3
6 5 5 6 6 6 6 6 6 6 6 6 6 6 6 5 5 5 5 5 5 5 4 4 4 4 4 4 4 4 4 4 4 4 4 3 3 3 3 3 3 3 3
5 5 5 5 5 5 5 5 5 5 5 5 5 5 5 5 5 5 5 5 4 4 4 4 4 4 4 3 3 3 3 3 3 3 3 3 3 3 3 3 2 2 2
4 4 4 4 5 5 5 5 5 5 5 5 5 5 5 5 4 4 4 4 4 4 4 3 3 3 3 3 3 3 3 2 2 3 3 3 3 2 2 2 2 2 2
4 4 4 4 4 4 4 4 4 4 4 4 4 4 4 4 4 4 4 4 3 3 3 3 3 3 3 2 2 2 2 2 2 2 2 2 2 2 2 2 2 1 2
3 3 3 3 4 4 4 4 4 4 4 4 4 4 4 4 3 3 3 3 3 3 3 3 2 2 2 2 2 2 1 1 1 1 1 1 2 1 2 1 1 1 1
2 3 3 3 3 3 3 3 3 3 3 3 3 3 3 3 3 3 3 3 3 3 2 2 2 2 1 1 1 1 1 1 1 1 1 0 1 1 1 1 1 1 0
2 2 2 2 2 2 2 2 2 2 2 2 2 2 2 2 2 2 2 2 2 2 2 2 1 1 1 1 1 0 0 0 -0 -0 0 -0 -0 -0 -0 0 0 0 -0
Wind_Speed
5 6 5 6 7 8 7 7 7 7 7 7 7 7 6 6 6 6 5 6 6 6 6 5 5 4 5 5 5 5 6 6 6 6 7 7 7 7 7 8 8 8 8
7 6 5 5 6 7 7 7 7 6 5 5 5 5 5 5 5 5 5 5 5 5 5 5 4 5 5 4 4 4 4 4 5 5 5 6 5 5 6 6 6 6 7
9 7 5 5 6 7 8 7 7 6 5 4 4 4 4 5 5 5 5 5 4 4 4 4 4 4 4 4 4 4 4 4 3 4 4 4 4 4 4 4 4 5 5
10 8 6 5 7 8 7 5 4 4 3 3 3 3 3 4 4 4 5 4 4 3 3 3 3 3 3 3 3 3 3 4 4 4 4 4 3 2 3 3 3 3 3
11 9 6 6 8 7 5 5 3 3 4 4 3 3 2 2 2 3 4 4 4 3 2 2 2 2 2 2 2 2 3 3 4 3 2 3 2 2 1 1 1 1 1
10 9 6 7 8 6 4 5 4 3 3 4 4 3 2 2 2 2 2 2 2 2 1 1 2 2 2 2 2 2 2 2 3 2 2 2 2 1 1 0 0 1 1
10 8 6 7 6 5 6 6 5 5 3 3 3 2 2 2 1 1 1 1 1 0 1 1 1 1 1 1 1 1 1 1 1 1 1 1 1 0 1 1 1 1 1
9 8 7 6 6 5 6 6 5 4 2 2 3 3 1 2 2 1 1 0 1 0 0 1 1 2 1 1 0 1 1 1 2 1 1 1 1 1 2 2 2 3 3
8 7 7 7 7 7 7 7 6 6 4 2 2 3 3 3 1 2 1 0 1 1 1 1 2 2 2 2 1 1 1 2 3 3 3 3 3 3 3 3 4 4 5
7 7 7 7 7 6 6 6 6 4 6 4 2 1 2 3 3 1 2 1 1 2 2 2 3 3 3 4 4 4 3 4 5 5 5 5 5 5 5 5 5 5 5
5 6 7 6 6 5 6 6 6 5 5 5 4 3 2 2 2 2 2 2 2 2 3 3 3 4 4 5 5 5 5 5 6 6 6 7 7 7 6 6 6 5 5
3 4 5 5 5 5 6 6 7 7 6 5 4 4 4 3 3 3 3 2 2 2 2 2 3 5 5 5 6 6 7 6 7 7 7 8 8 8 7 7 7 7 7
3 5 5 5 5 5 5 6 6 7 7 7 6 4 4 3 3 3 3 2 2 2 2 2 3 5 5 6 6 6 7 7 7 8 8 8 8 7 7 7 7 7 7
5 5 6 6 5 6 5 5 5 5 6 6 6 6 4 4 4 4 4 3 1 1 2 3 2 4 5 6 6 6 6 7 8 8 8 9 8 7 7 7 7 7 7
4 6 6 6 5 6 6 6 5 5 5 6 6 6 4 4 4 4 4 4 4 3 4 4 3 2 4 5 5 5 6 7 8 8 9 9 8 8 8 8 8 8 8
5 6 5 5 5 5 6 6 5 5 5 5 5 6 5 3 4 3 4 4 4 4 4 3 3 2 2 3 5 5 7 7 8 8 8 8 9 9 9 9 9 9 9
5 6 6 6 5 5 5 5 5 6 6 5 4 6 6 5 4 4 4 4 4 3 4 3 2 1 2 2 3 4 5 5 6 8 8 9 9 9 10 10 10 10 10
5 5 5 5 5 5 5 6 6 6 6 6 6 5 5 5 5 4 4 4 4 4 4 4 2 2 2 2 2 2 4 5 6 8 9 9 10 10 11 11 11 11 11
4 4 4 5 5 5 5 5 6 6 6 6 6 6 6 5 5 4 5 4 4 3 3 3 3 2 1 1 1 2 3 3 6 7 8 9 10 11 11 11 11 12 11
4 4 4 4 5 4 4 4 5 5 5 5 5 6 6 6 6 6 5 5 4 3 3 3 2 2 2 1 1 2 3 2 3 5 7 8 9 10 10 11 11 12 12
4 4 4 4 4 4 4 5 5 5 5 4 4 4 5 6 7 6 5 5 5 4 3 3 3 2 2 2 3 2 3 3 3 3 2 4 5 6 7 9 11 12 12
3 3 3 4 4 3 5 6 5 4 5 5 4 4 4 5 6 7 7 7 7 6 5 5 4 4 5 4 3 3 2 2 3 2 1 4 3 4 6 8 11 12 11
3 3 3 3 3 3 5 5 5 4 4 5 5 4 3 3 4 3 4 6 7 8 8 6 6 6 5 5 4 4 4 4 5 2 1 4 2 4 6 9 11 11 11
3 3 3 3 3 3 4 4 4 3 3 3 4 4 4 4 3 4 3 3 4 5 6 6 6 6 5 5 5 5 4 3 2 2 2 3 3 3 5 7 9 9 10
2 2 2 3 3 2 3 4 3 2 2 2 2 3 4 4 5 5 4 3 3 3 4 6 7 6 6 6 4 2 2 2 3 3 2 2 2 3 3 4 6 7 8
2 2 1 2 2 2 2 3 3 2 2 2 1 2 4 4 5 6 5 4 5 4 2 2 2 3 3 3 5 4 4 3 2 3 2 2 1 1 3 2 3 5 6
Wind_Direction
141 137 131 128 127 127 123 118 115 111 105 102 102 102 94 93 87 86 87 89 96 100 103 107 105 113 119 115 107 103 98 91 92 102 99 92 88 84 85 81 76 71 68
152 147 141 137 134 135 133 130 126 119 110 105 97 100 102 98 91 87 87 87 90 94 99 96 96 109 117 117 114 110 106 101 92 106 109 100 96 94 92 85 80 73 70
160 155 152 151 148 143 134 124 118 112 108 103 95 93 98 94 93 88 88 86 83 83 88 88 86 104 114 114 116 108 99 99 99 109 117 112 106 101 100 92 85 76 70
166 160 157 158 155 146 136 129 127 118 114 111 103 89 84 86 89 94 92 84 83 82 83 81 80 90 106 111 127 114 104 92 100 113 111 111 112 104 111 102 91 82 73
169 163 161 156 153 145 140 141 132 132 133 123 109 91 76 76 80 88 85 82 82 78 80 76 77 74 76 92 106 105 94 99 92 97 116 119 113 108 122 109 80 74 80
170 164 156 155 153 146 147 143 138 125 130 130 110 85 62 58 73 83 81 75 87 90 86 81 85 70 57 65 82 84 66 73 87 76 79 127 129 135 155 172 283 326 335
170 166 160 155 156 159 159 150 138 129 123 128 109 79 35 41 55 67 56 58 44 93 110 122 123 113 101 63 70 70 34 37 64 60 56 56 87 135 197 250 267 292 290
168 171 164 163 160 154 150 154 145 136 137 145 131 118 70 355 351 14 28 346 330 349 129 195 187 172 188 184 159 50 351 329 329 317 306 310 302 284 250 255 267 279 283
171 169 169 165 164 165 170 171 164 153 156 168 151 145 155 202 266 323 315 276 251 262 268 254 243 231 222 220 244 257 274 297 303 299 292 284 288 283 274 262 262 271 274
171 170 170 168 169 170 173 179 173 158 155 165 154 92 130 146 155 245 306 291 261 250 250 251 251 250 237 228 239 251 260 271 282 285 286 291 288 283 280 277 271 275 279
167 166 169 168 170 175 176 177 174 168 171 171 166 150 120 88 126 165 233 271 285 258 243 242 241 243 243 236 239 244 254 263 272 277 282 288 288 281 279 284 282 282 286
165 164 166 171 175 176 181 183 181 179 183 175 170 165 162 163 178 176 201 229 250 271 261 240 234 237 241 240 241 247 249 255 265 273 276 280 286 285 284 285 286 284 286
181 181 175 178 179 180 182 179 181 187 186 182 185 190 186 183 163 166 172 195 232 275 289 263 236 234 239 241 244 253 252 255 260 266 272 276 283 293 294 286 283 285 287
191 179 180 184 183 180 179 176 183 192 188 191 194 188 190 195 180 175 171 167 200 271 267 258 259 229 233 240 245 255 256 259 260 262 267 273 278 281 288 287 282 284 288
176 172 178 182 183 182 181 178 187 194 192 197 197 195 197 199 193 189 180 179 181 226 253 244 239 233 233 238 248 249 252 261 262 263 264 267 268 272 277 278 276 276 279
168 168 172 177 180 184 185 183 186 191 192 201 196 194 200 201 195 192 192 194 195 205 234 231 230 244 234 244 255 250 253 262 263 261 259 260 263 265 270 273 275 273 273
172 175 177 179 183 187 185 187 193 189 193 198 197 198 204 196 195 195 189 190 197 196 231 258 247 251 230 253 273 266 263 258 263 262 260 261 262 265 266 269 270 269 271
176 174 172 177 183 185 185 190 194 192 193 198 201 198 207 196 195 196 193 198 201 200 210 241 246 234 243 241 250 268 274 263 263 267 267 265 264 266 268 268 267 267 269
168 167 169 177 183 183 185 190 191 194 198 201 200 199 205 197 203 202 198 201 201 200 203 215 237 229 247 245 263 279 275 270 270 269 269 267 265 268 270 269 269 269 268
167 175 179 180 183 180 181 183 185 190 197 203 203 202 202 202 205 201 202 201 194 194 195 206 225 231 233 241 222 256 282 277 279 276 268 267 269 271 272 271 272 272 269
173 179 177 177 178 178 184 184 189 191 193 198 205 206 206 205 204 203 200 197 191 197 199 211 224 229 228 219 231 230 256 284 280 253 274 275 270 269 270 273 272 269 270
165 165 175 181 183 191 193 193 190 189 191 195 203 206 204 206 207 208 209 203 197 199 205 212 223 229 232 226 224 228 244 274 275 254 270 282 260 265 268 267 273 272 270
164 168 179 178 186 194 190 193 194 187 189 197 199 197 201 206 205 202 210 215 219 219 215 211 221 228 227 220 212 225 228 238 249 243 239 272 268 269 271 272 276 272 273
166 172 178 182 183 198 191 189 186 182 187 199 202 198 197 201 203 197 199 213 229 234 229 225 223 228 226 217 210 219 229 243 266 243 194 255 271 274 290 281 276 273 274
155 166 174 174 178 198 195 189 176 168 178 198 204 196 194 201 208 199 194 211 234 253 245 230 230 230 231 227 209 194 205 232 264 254 201 223 270 297 294 284 280 281 279
152 152 154 172 179 199 202 191 177 167 179 193 197 204 204 205 205 196 195 202 223 237 225 232 232 239 228 216 209 204 207 221 240 248 207 200 251 316 301 283 289 292 293
Height
1535 1537 1540 1542 1543 1545 1547 1549 1551 1553 1555 1556 1558 1559 1561 1562 1563 1564 1565 1566 1566 1567 1567 1567 1567 1567 1567 1567 1567 1568 1568 1568 1568 1568 1568 1569 1569 1569 1570 1570 1570 1570 1570
1534 1536 1538 1540 1542 1544 1546 1548 1550 1552 1554 1556 1557 1559 1560 1561 1562 1563 1564 1565 1565 1566 1566 1566 1566 1566 1566 1566 1567 1567 1567 1567 1567 1567 1567 1568 1568 1569 1569 1569 1569 1569 1569
1532 1534 1536 1538 1541 1543 1545 1547 1549 1551 1553 1554 1556 1558 1559 1560 1561 1562 1563 1564 1564 1565 1565 1566 1566 1566 1566 1566 1566 1566 1566 1566 1566 1566 1566 1567 1567 1568 1568 1568 1568 1568 1568
1530 1532 1534 1537 1539 1541 1543 1545 1547 1549 1551 1553 1555 1556 1558 1559 1560 1561 1562 1563 1563 1564 1564 1564 1565 1565 1565 1565 1565 1565 1565 1565 1564 1565 1565 1566 1566 1567 1567 1567 1567 1567 1567
1527 1530 1532 1534 1537 1539 1541 1543 1545 1548 1550 1551 1553 1555 1556 1557 1559 1560 1560 1561 1562 1562 1563 1563 1563 1564 1564 1564 1564 1564 1564 1564 1564 1564 1564 1565 1565 1565 1565 1566 1566 1566 1566
1525 1527 1529 1532 1534 1537 1539 1541 1543 1546 1548 1549 1551 1553 1554 1556 1557 1558 1559 1560 1560 1561 1561 1561 1562 1562 1562 1563 1563 1563 1563 1563 1563 1563 1563 1563 1564 1564 1564 1564 1564 1564 1564
1522 1524 1527 1529 1532 1534 1536 1539 1541 1543 1545 1547 1549 1551 1552 1553 1554 1556 1557 1557 1558 1558 1559 1560 1560 1560 1561 1561 1561 1561 1562 1562 1562 1562 1562 1562 1562 1562 1562 1562 1562 1562 1562
1519 1521 1524 1526 1529 1531 1534 1536 1538 1540 1542 1545 1547 1548 1550 1552 1551 1553 1554 1555 1555 1556 1557 1557 1558 1558 1559 1559 1559 1560 1560 1560 1560 1560 1560 1560 1560 1560 1560 1560 1560 1560 1560
1516 1518 1521 1524 1526 1529 1531 1533 1535 1537 1539 1542 1544 1546 1547 1548 1549 1550 1551 1552 1553 1554 1554 1555 1556 1556 1556 1557 1557 1557 1558 1558 1558 1558 1558 1558 1558 1558 1558 1558 1558 1558 1558
1512 1515 1518 1520 1523 1525 1528 1530 1533 1535 1537 1539 1541 1543 1545 1545 1547 1547 1549 1550 1550 1551 1552 1552 1553 1553 1554 1554 1554 1555 1555 1556 1556 1556 1556 1556 1556 1555 1555 1555 1555 1555 1555
1509 1511 1515 1517 1520 1522 1525 1527 1530 1532 1534 1536 1537 1539 1541 1542 1544 1545 1545 1546 1547 1548 1549 1550 1550 1551 1551 1551 1552 1552 1552 1553 1553 1553 1553 1553 1553 1553 1552 1552 1552 1552 1551
1505 1508 1511 1514 1516 1519 1521 1524 1526 1528 1530 1532 1534 1536 1538 1539 1540 1542 1542 1543 1544 1545 1546 1546 1547 1548 1548 1549 1549 1549 1549 1549 1549 1550 1549 1549 1549 1549 1549 1548 1548 1548 1548
1501 1504 1507 1510 1512 1515 1518 1520 1523 1525 1527 1529 1531 1533 1535 1536 1538 1539 1540 1540 1541 1541 1542 1543 1544 1545 1545 1546 1546 1546 1546 1546 1546 1546 1546 1546 1545 1545 1545 1545 1544 1544 1544
1497 1500 1503 1506 1508 1511 1514 1516 1519 1521 1523 1525 1527 1529 1531 1532 1534 1536 1537 1537 1537 1538 1538 1539 1540 1541 1542 1542 1542 1543 1543 1542 1542 1542 1542 1542 1542 1541 1541 1541 1540 1540 1540
1493 1496 1499 1502 1504 1507 1509 1512 1514 1517 1519 1521 1523 1525 1527 1529 1530 1532 1533 1534 1536 1534 1534 1535 1537 1537 1538 1538 1539 1539 1539 1539 1538 1538 1538 1538 1538 1537 1537 1537 1536 1536 1535
1490 1492 1495 1497 1500 1503 1505 1508 1510 1513 1515 1517 1519 1521 1523 1524 1526 1527 1529 1530 1531 1532 1531 1531 1532 1533 1534 1534 1534 1534 1534 1534 1534 1534 1534 1534 1534 1533 1533 1532 1532 1531 1531
1485 1488 1491 1493 1496 1498 1501 1503 1506 1508 1510 1512 1514 1516 1518 1520 1521 1523 1524 1525 1526 1527 1527 1527 1528 1529 1529 1529 1530 1530 1530 1530 1530 1530 1529 1529 1529 1529 1528 1528 1527 1526 1526
1481 1484 1487 1489 1491 1494 1496 1499 1501 1503 1505 1507 1510 1512 1513 1515 1517 1518 1519 1520 1521 1522 1523 1522 1523 1524 1524 1525 1525 1525 1525 1525 1525 1525 1524 1524 1524 1523 1523 1522 1522 1521 1520
1477 1480 1482 1484 1487 1489 1492 1494 1496 1499 1501 1503 1505 1507 1509 1510 1512 1513 1515 1516 1516 1517 1518 1518 1518 1519 1520 1520 1520 1520 1520 1520 1520 1520 1519 1519 1519 1518 1517 1517 1516 1515 1515
1473 1475 1478 1480 1483 1485 1487 1490 1492 1494 1496 1498 1500 1502 1503 1505 1507 1508 1510 1511 1512 1513 1513 1514 1514 1514 1515 1515 1515 1515 1515 1515 1515 1515 1514 1514 1513 1512 1512 1511 1510 1510 1509
1469 1471 1473 1476 1478 1480 1483 1485 1487 1489 1491 1493 1495 1497 1498 1500 1502 1503 1504 1505 1507 1507 1508 1508 1509 1509 1510 1510 1511 1510 1510 1509 1509 1509 1509 1508 1508 1507 1506 1505 1505 1504 1503
1465 1467 1469 1472 1474 1476 1479 1481 1483 1485 1487 1488 1490 1491 1493 1495 1496 1498 1499 1500 1501 1502 1502 1503 1504 1504 1504 1506 1506 1506 1505 1504 1503 1504 1503 1502 1502 1501 1500 1500 1499 1498 1497
1461 1463 1466 1468 1470 1472 1475 1477 1479 1480 1482 1483 1485 1486 1488 1490 1491 1492 1494 1495 1496 1497 1498 1499 1499 1499 1500 1501 1501 1501 1500 1500 1499 1499 1498 1496 1496 1495 1495 1494 1493 1492 1491
1458 1460 1462 1464 1466 1468 1470 1472 1474 1476 1477 1479 1480 1482 1483 1484 1486 1487 1488 1489 1490 1491 1492 1493 1494 1494 1495 1496 1496 1496 1495 1495 1494 1494 1493 1491 1490 1490 1490 1489 1488 1487 1485
1455 1457 1459 1460 1462 1464 1466 1468 1470 1471 1472 1474 1476 1477 1478 1480 1481 1483 1483 1484 1485 1486 1487 1488 1488 1489 1490 1490 1491 1490 1490 1489 1488 1488 1488 1487 1485 1484 1483 1483 1482 1481 1480
1451 1453 1455 1457 1459 1460 1462 1464 1466 1467 1468 1470 1471 1473 1474 1475 1477 1477 1478 1479 1479 1480 1482 1482 1483 1484 1484 1485 1485 1485 1485 1484 1483 1482 1482 1481 1480 1479 1477 1476 1477 1476 1474